Content
SEND FEEDBACK

Daily
Averages
Monthly
Summary
United States of America

NEMO, TEXAS


Home > North America > United States > Texas
Elevation: 620 feet     Latitude: 32 15N     Longitude: 097 42W

WEATHER
 
SELECT A DAY
Number of Records: 255,028;   Date Range: 10/30/03 - 7/27/14
 
SHARE

PRINT THIS DATA

[ ← Previous Day ]
WEATHER ALMANAC - JANUARY 31, 2013
[ Next Day → ]
[ °C ]   °F
Weather ElementAverageHighLow
Temperature49.9 °F68 °F (1:55 pm)32 °F (12:55 am)
Dewpoint26.1 °F32 °F (8:35 am)21.2 °F (3:15 pm)
Humidity46.5 %87 % (12:55 am)17 % (3:15 pm)
Barometer30.18 in30.32 in (11:55 pm)30.11 in (3:15 pm)
Wind Speed6.6 mph20.7 mph (3:15 pm)
Wind Gust27.6 mph (3:15 pm)
Weather ElementAverage
Visibility10 mi
Wind DirectionSE (134.6 °)

Weather ElementTotal
Precipitation---
Heating Degree Days15 (Base 65)
Averaged from 69 records on January 31, 2013
WEATHER CONDITIONS BREAKOUT
WIND DIRECTION BREAKOUT
WEATHER BY HOUR - JANUARY 31, 2013
[ °C ]   °F
Local TimeTemperatureDewpointHumidityBarometerVisibilityWind DirectionWind SpeedGust SpeedPrecipitationEventsConditions
12:35 AM33.8 °F28.4 °F81 %30.17 in10.0 miCalmClear
12:55 AM32.0 °F28.4 °F87 %30.17 in10.0 miCalmClear
1:15 AM32.0 °F28.4 °F87 %30.15 in10.0 miCalmClear
1:35 AM32.0 °F26.6 °F80 %30.16 in10.0 miCalmClear
1:55 AM33.8 °F26.6 °F75 %30.17 in10.0 miCalmClear
2:15 AM33.8 °F26.6 °F75 %30.16 in10.0 miCalmClear
2:35 AM33.8 °F24.8 °F70 %30.15 in10.0 miCalmClear
2:55 AM37.4 °F23.0 °F56 %30.16 in10.0 miSW (230°)3.5 mphClear
3:15 AM39.2 °F23.0 °F52 %30.16 in10.0 miSW (230°)4.6 mphClear
3:35 AM37.4 °F23.0 °F56 %30.17 in10.0 miSW (220°)4.6 mphClear
3:55 AM41.0 °F23.0 °F49 %30.16 in10.0 miSW (220°)8.1 mphClear
4:15 AM37.4 °F23.0 °F56 %30.16 in10.0 miCalmClear
4:35 AM35.6 °F23.0 °F60 %30.15 in10.0 miCalmClear
4:55 AM35.6 °F23.0 °F60 %30.15 in10.0 miCalmClear
5:15 AM32.0 °F26.6 °F80 %30.14 in10.0 miNorth (360°)3.5 mphClear
5:35 AM33.8 °F24.8 °F70 %30.15 in10.0 miCalmClear
5:55 AM33.8 °F28.4 °F81 %30.16 in10.0 miCalmClear
6:15 AM33.8 °F28.4 °F81 %30.15 in10.0 miCalmClear
6:35 AM32.0 °F28.4 °F87 %30.15 in10.0 miCalmClear
6:55 AM32.0 °F28.4 °F87 %30.16 in10.0 miCalmClear
7:15 AM32.0 °F28.4 °F87 %30.17 in10.0 miCalmClear
7:55 AM32.0 °F28.4 °F87 %30.19 in10.0 miCalmClear
8:15 AM35.6 °F30.2 °F81 %30.19 in10.0 miCalmClear
8:35 AM35.6 °F32.0 °F87 %30.19 in10.0 miCalmClear
8:55 AM42.8 °F28.4 °F57 %30.20 in10.0 miSouth (180°)4.6 mphClear
9:15 AM46.4 °F23.0 °F40 %30.19 in10.0 miSSW (200°)10.4 mphClear
9:35 AM50.0 °F23.0 °F35 %30.20 in10.0 miSSW (200°)9.2 mphClear
9:55 AM51.8 °F23.0 °F33 %30.20 in10.0 miSSW (210°)13.8 mph18.4 mphClear
10:15 AM53.6 °F23.0 °F30 %30.21 in10.0 miSW (220°)13.8 mph19.6 mphClear
10:35 AM57.2 °F23.0 °F27 %30.21 in10.0 miSW (220°)11.5 mph21.9 mphClear
10:55 AM59.0 °F23.0 °F25 %30.20 in10.0 miSW (230°)16.1 mph24.2 mphClear
11:15 AM60.8 °F23.0 °F23 %30.20 in10.0 miSW (220°)18.4 mph25.3 mphClear
11:35 AM60.8 °F23.0 °F23 %30.19 in10.0 miSSW (210°)16.1 mphClear
11:55 AM62.6 °F23.0 °F22 %30.19 in10.0 miSW (220°)13.8 mph23.0 mphClear
12:15 PM62.6 °F23.0 °F22 %30.18 in10.0 miSSW (210°)16.1 mph21.9 mphClear
12:35 PM64.4 °F23.0 °F21 %30.18 in10.0 miSW (220°)16.1 mph19.6 mphClear
12:55 PM64.4 °F23.0 °F21 %30.16 in10.0 miSW (220°)13.8 mph18.4 mphClear
1:15 PM66.2 °F23.0 °F19 %30.15 in10.0 miSW (230°)12.7 mph19.6 mphClear
1:35 PM66.2 °F24.8 °F21 %30.14 in10.0 miSW (220°)16.1 mph25.3 mphClear
1:55 PM68.0 °F23.0 °F18 %30.12 in10.0 miSW (220°)17.3 mph26.5 mphClear
2:15 PM68.0 °F23.0 °F18 %30.12 in10.0 miSSW (210°)19.6 mph26.5 mphClear
2:35 PM68.0 °F23.0 °F18 %30.12 in10.0 miSSW (210°)16.1 mph24.2 mphClear
2:55 PM68.0 °F23.0 °F18 %30.12 in10.0 miSW (220°)12.7 mph23.0 mphClear
3:15 PM68.0 °F21.2 °F17 %30.11 in10.0 miWSW (240°)20.7 mph27.6 mphClear
3:35 PM68.0 °F21.2 °F17 %30.11 in10.0 miWest (260°)13.8 mph23.0 mphClear
3:55 PM68.0 °F23.0 °F18 %30.11 in10.0 miSW (230°)12.7 mph24.2 mphClear
4:15 PM68.0 °F23.0 °F18 %30.11 in10.0 miSW (230°)11.5 mphClear
4:35 PM68.0 °F26.6 °F21 %30.11 in10.0 miWSW (240°)11.5 mphClear
4:55 PM68.0 °F23.0 °F18 %30.12 in10.0 miWSW (250°)11.5 mphClear
5:15 PM68.0 °F23.0 °F18 %30.13 in10.0 miWSW (250°)6.9 mphClear
5:35 PM64.4 °F26.6 °F24 %30.14 in10.0 miWSW (240°)6.9 mphClear
5:55 PM62.6 °F24.8 °F24 %30.14 in10.0 miWSW (240°)3.5 mphClear
6:15 PM60.8 °F26.6 °F27 %30.15 in10.0 miSW (230°)4.6 mphClear
6:35 PM60.8 °F26.6 °F27 %30.15 in10.0 miSW (230°)4.6 mphClear
6:55 PM57.2 °F26.6 °F31 %30.17 in10.0 miWest (280°)3.5 mphClear
7:15 PM55.4 °F28.4 °F36 %30.18 in10.0 miCalmClear
7:35 PM51.8 °F30.2 °F44 %30.20 in10.0 miCalmClear
8:15 PM50.0 °F28.4 °F43 %30.22 in10.0 miWest (260°)4.6 mphClear
8:35 PM48.2 °F30.2 °F50 %30.22 in10.0 miCalmClear
8:55 PM44.6 °F32.0 °F61 %30.23 in10.0 miCalmClear
9:15 PM44.6 °F32.0 °F61 %30.24 in10.0 miWest (280°)3.5 mphClear
9:35 PM44.6 °F32.0 °F61 %30.25 in10.0 miCalmClear
9:55 PM50.0 °F30.2 °F47 %30.26 in10.0 miCalmClear
10:15 PM51.8 °F28.4 °F41 %30.27 in10.0 miNorth (360°)3.5 mphClear
10:35 PM53.6 °F30.2 °F41 %30.28 in10.0 miNNE (20°)10.4 mphClear
10:55 PM51.8 °F30.2 °F44 %30.29 in10.0 miNorth (10°)9.2 mphClear
11:15 PM50.0 °F32.0 °F50 %30.30 in10.0 miNNE (30°)6.9 mphClear
11:35 PM50.0 °F32.0 °F50 %30.31 in10.0 miNE (40°)5.8 mph9.2 mphClear
11:55 PM46.4 °F32.0 °F57 %30.32 in10.0 miNE (40°)6.9 mphClear
Hourly data recorded from KGDJ, located miles away from Nemo, Texas







STORIES FROM OUR PARTNERS